Find Ekran

NORAD ID: 13878 Int'l Des: 1983-016 Owner: MSVYAZ Country: SU operational
HEOCIRCULAR

Live Position

Loading 3D Globe...

About Ekran

Description loading...

Upcoming Passes

Passes for default location (London). Set your location on the main map for personalized predictions.

Altitude History

Loading altitude history...

Two-Line Element Set

1 13878U 83016A 26110.32601993 -.00000145 00000-0 00000+0 0 9998
2 13878 10.5259 310.8400 0032908 25.4462 167.7127 0.95031527118623
Epoch: Apr 20, 2026 • Age: 17 hours

Current Status

Altitude 37226.7 km
Velocity 3.03 km/s
Sub-Earth Point 10.15°N, 164.96°E
Launch Date Mar 12, 1983
Age 43.1 years
Type other

Technical Details

Classification Payload
Mass 2000.00 kg
Dry Mass 1850.00 kg
Total Mass 2000.00 kg
Length 5.50 m
Diameter 2.50 m
Span 9.00 m
Shape Cyl + 2 Pan + Plate
Manufacturer NPOPM
Bus Type Ekran
Phase Status In Orbit
Owner/State MSVYAZ/SU

Most Searched